GOES 7 [-]

Last updated on Fri Dec 29 2023 00:02:21 GMT+0000 (Coordinated Universal Time)

1 17561U 87022A 23362.08401633 .00000102 00000+0 00000+0 0 9991 2 17561 13.7506 344.1431 0002339 64.0921 294.7578 0.99897429117977

Satellite not in orbit

GOES 7 [-]